Wind_Speed
12 12 12 12 12 13 14 15 15 14 14 14 15 15 15 14 13 13 13 13 12 11 10 10 11 11 10 10 10 9 9 8 8 8 9 9 10 11 11 12 13 14 15
13 12 12 12 12 12 13 14 15 15 14 14 14 14 14 13 13 13 12 12 12 11 10 10 11 10 10 9 9 9 8 8 8 8 8 8 9 9 10 11 13 13 14
13 13 12 12 12 12 12 14 16 15 14 14 14 14 13 13 13 12 12 11 12 11 10 9 10 10 10 9 8 8 8 8 8 8 8 8 8 8 9 10 10 11 11
13 12 12 11 11 12 12 14 16 15 15 15 14 14 13 13 13 12 12 11 11 10 10 9 9 9 9 8 8 8 8 8 8 8 8 8 8 8 9 9 9 10 10
12 11 11 11 11 11 12 13 15 15 14 14 14 14 14 13 13 13 12 11 10 10 9 9 9 8 8 8 7 7 7 7 7 7 7 8 8 9 9 9 9 10 10
11 11 11 11 11 12 12 12 13 14 14 13 13 13 13 13 13 13 12 11 10 9 8 8 8 8 8 7 7 6 6 6 6 7 7 8 8 8 8 8 9 10 11
11 11 11 10 10 11 11 12 12 13 13 13 12 12 13 13 13 13 12 11 10 9 8 8 8 7 7 6 6 6 6 6 6 7 6 7 7 8 8 9 9 10 10
9 9 10 10 11 11 11 12 12 12 13 12 12 13 13 13 13 13 12 11 10 9 9 8 7 7 6 6 6 7 6 6 7 6 6 7 7 7 7 8 9 10 10
9 9 9 9 11 11 11 12 12 12 13 13 13 14 13 13 13 13 12 12 11 10 10 9 8 7 6 6 7 7 7 7 7 6 7 6 6 7 7 8 8 9 10
8 8 9 9 9 10 11 12 12 12 12 13 13 13 13 13 13 13 13 12 11 10 9 9 8 7 6 6 7 7 7 6 7 6 6 6 6 7 7 7 8 9 9
9 10 10 10 10 10 11 12 11 12 11 12 12 12 13 13 13 13 13 12 11 10 10 9 8 8 7 7 6 6 6 6 6 6 6 6 7 7 7 8 9 9 10
10 11 11 11 11 10 11 11 12 11 11 11 11 12 13 13 12 12 12 11 11 11 10 10 9 8 8 7 7 7 7 6 7 7 7 7 8 8 8 9 10 11 11
12 12 12 12 11 11 11 11 12 11 11 11 11 11 12 12 12 12 12 12 11 11 11 10 10 10 9 8 8 8 8 8 8 9 9 9 9 10 10 11 11 12 13
14 13 13 13 12 12 12 12 12 12 12 12 12 12 12 12 12 12 12 12 12 12 11 11 11 10 9 9 10 9 9 10 10 10 11 11 12 12 12 13 13 14 14
14 14 14 13 13 13 12 13 12 12 12 12 13 13 13 12 12 12 12 12 13 13 12 12 11 11 11 11 11 11 11 11 12 13 13 13 14 14 15 15 15 16 16
15 15 15 14 14 13 13 14 13 13 12 12 13 14 14 13 13 12 12 13 13 13 12 12 12 12 12 12 12 13 13 13 14 15 15 16 16 16 17 17 18 18 19
16 16 16 16 14 14 15 14 14 14 13 13 13 14 14 13 13 13 13 13 13 13 14 14 14 14 14 14 14 14 15 15 16 17 17 18 18 18 19 19 20 20 21
18 18 18 17 16 16 15 15 14 14 14 14 14 13 13 13 13 14 14 14 14 15 15 15 15 15 15 16 16 16 17 17 18 18 19 20 20 20 21 21 22 23 23
19 19 19 18 17 17 16 16 15 14 14 14 15 15 15 15 15 15 15 15 15 16 17 17 17 17 18 18 18 18 19 19 20 20 21 22 22 23 23 24 24 25 26
20 20 20 19 18 18 17 17 16 16 16 16 16 16 17 17 17 17 17 17 17 18 18 18 19 19 19 19 20 21 21 22 22 23 23 24 25 25 26 26 27 28 28
21 21 21 21 20 19 19 18 18 18 18 18 17 17 18 18 18 18 18 18 19 19 19 20 20 20 21 21 22 23 23 23 24 25 25 26 26 26 27 28 28 29 30
22 22 22 22 22 21 20 19 19 19 20 19 19 19 19 19 19 19 20 20 20 21 21 21 22 22 23 24 24 25 25 26 26 26 27 27 28 28 28 29 30 31 32
24 24 23 23 23 22 22 21 21 21 21 21 21 21 21 21 21 21 22 21 21 22 23 23 24 24 25 25 26 27 27 27 28 28 29 29 30 30 31 32 33 33 34
24 23 24 24 24 23 23 23 23 23 23 23 23 23 23 23 23 23 23 23 23 24 25 26 26 26 26 27 27 28 28 29 30 30 31 31 32 34 34 35 36 36 36
23 23 23 24 24 25 25 24 24 25 24 24 24 24 24 25 24 25 25 25 26 26 27 27 28 28 29 29 30 30 32 32 33 33 34 35 36 36 37 38 38 39 39
23 23 23 24 24 25 25 25 25 26 26 26 26 26 26 26 27 27 27 28 28 28 29 29 30 31 32 32 33 33 34 35 36 36 36 37 38 39 40 40 41 41 42
Wind_Direction
258 259 262 260 251 244 232 228 226 226 226 224 222 220 221 220 221 225 224 224 225 222 221 223 221 224 226 227 230 233 238 242 248 253 253 255 257 259 260 261 263 265 263
261 261 261 257 249 243 234 227 224 222 221 221 217 215 216 220 220 220 217 220 222 219 221 223 223 227 228 229 229 231 236 240 247 257 257 256 260 264 266 266 267 269 268
260 260 260 254 244 239 231 224 222 219 219 218 216 214 216 218 216 217 217 215 217 221 221 224 225 227 230 229 230 232 237 243 250 256 259 259 265 269 271 273 272 273 271
259 258 254 248 237 231 225 218 218 218 219 218 215 214 216 218 216 215 212 210 212 214 218 222 222 223 226 228 228 231 237 243 250 254 258 262 265 270 275 277 275 276 276
258 257 255 244 231 225 220 217 215 216 219 218 218 217 214 214 213 208 204 204 208 211 215 217 216 218 220 221 224 231 236 242 249 254 258 263 267 271 275 279 278 278 280
257 257 249 239 228 222 215 214 214 217 219 219 221 217 210 208 206 200 201 202 205 206 209 205 205 209 213 216 223 230 239 246 253 259 262 265 269 270 273 276 280 282 283
255 253 237 233 226 217 210 211 212 212 214 215 213 207 204 202 198 199 201 200 201 202 201 200 202 209 211 216 226 235 244 250 258 264 264 267 270 272 272 276 281 286 288
246 242 228 222 216 211 208 208 209 207 208 207 204 200 200 202 201 199 199 200 203 204 202 201 206 213 221 228 236 242 248 257 262 264 266 268 273 276 280 281 285 290 291
237 229 223 222 214 208 208 206 206 207 208 207 203 200 200 201 201 198 198 203 207 208 207 208 212 221 232 241 246 249 257 262 266 267 268 270 277 283 287 287 288 292 294
226 218 216 212 206 204 202 204 206 207 207 205 202 201 200 199 200 199 201 207 212 213 213 214 219 228 240 250 253 254 261 264 266 271 277 280 282 286 288 290 291 295 296
215 211 210 209 206 206 207 207 208 207 205 205 204 202 200 201 203 206 208 211 216 218 219 222 228 237 248 255 256 262 260 265 268 272 276 279 283 285 286 291 294 297 299
217 211 207 208 208 211 211 210 207 205 202 201 202 204 203 203 206 209 212 216 217 219 222 227 234 242 250 255 257 262 264 265 268 273 278 280 283 285 286 289 293 297 299
215 212 210 210 213 214 213 211 210 209 206 205 205 203 203 206 210 213 217 220 221 224 229 236 241 246 251 253 258 263 264 267 271 275 279 282 284 285 286 289 292 295 298
215 214 214 214 216 215 215 215 213 213 212 211 209 207 207 210 213 216 221 223 225 228 232 238 244 248 250 254 259 264 267 270 274 278 280 281 283 284 286 289 291 293 294
218 217 216 217 217 217 218 215 215 217 217 217 214 212 212 215 220 223 224 228 230 232 236 241 244 247 251 257 263 267 270 273 277 280 282 283 283 284 285 288 289 291 292
220 219 219 219 220 222 222 217 216 218 222 222 220 219 221 223 225 227 231 233 235 238 241 244 248 251 255 261 267 270 272 276 279 281 283 285 285 285 286 287 289 290 291
223 221 219 220 223 226 224 221 220 222 225 226 225 225 225 226 230 233 235 238 242 245 247 249 253 256 261 265 269 271 274 277 281 283 284 286 286 286 286 288 289 290 290
222 221 222 224 226 226 223 223 224 225 227 228 229 229 229 231 234 238 241 245 249 251 254 256 259 262 265 268 270 273 276 278 281 284 285 287 288 287 287 287 288 289 289
222 222 223 224 226 226 225 225 226 229 231 232 232 234 236 239 241 243 247 250 254 256 258 259 262 265 267 270 272 275 277 279 281 283 284 285 286 286 286 287 288 288 289
223 223 224 225 226 226 228 228 230 232 234 236 238 239 242 244 246 249 252 255 256 259 261 263 265 267 270 271 273 275 277 279 280 281 283 285 286 286 287 287 288 288 289
224 225 225 227 227 228 229 229 231 234 238 241 243 245 246 247 249 252 257 259 259 261 263 265 267 269 271 273 274 275 277 280 282 283 283 285 285 286 288 288 289 290 290
226 227 229 228 228 228 229 230 233 237 241 244 246 248 250 251 253 255 258 260 262 263 264 266 269 270 272 274 274 276 278 279 281 283 283 285 286 286 287 288 290 290 291
229 230 231 230 230 230 231 233 237 240 243 245 248 250 252 254 257 258 259 261 264 265 265 267 269 271 274 275 276 277 277 278 280 281 283 284 285 286 287 288 290 290 291
228 229 229 229 231 233 235 237 240 244 246 248 251 253 254 256 258 260 260 262 264 266 268 270 271 273 276 277 278 278 278 279 280 281 282 283 284 286 286 288 290 290 290
228 230 231 232 235 236 237 238 242 246 248 250 253 255 256 257 258 260 262 265 267 269 269 271 272 273 276 278 279 280 280 280 281 282 283 284 284 285 286 287 288 289 290
228 230 232 234 236 237 238 239 243 246 249 251 253 254 256 257 259 263 265 265 268 270 270 272 274 276 278 279 280 282 283 284 283 282 283 283 283 285 286 287 288 289 290
Height
5841 5842 5842 5842 5842 5843 5844 5845 5846 5848 5850 5852 5853 5855 5857 5859 5861 5862 5863 5865 5867 5868 5870 5871 5872 5873 5874 5875 5876 5877 5877 5878 5878 5878 5878 5878 5878 5878 5878 5878 5878 5878 5879
5839 5839 5839 5839 5839 5840 5841 5843 5844 5846 5848 5850 5851 5853 5855 5857 5859 5860 5861 5863 5864 5866 5868 5869 5870 5871 5872 5873 5874 5875 5875 5876 5876 5877 5877 5877 5877 5877 5876 5876 5876 5876 5876
5836 5836 5836 5836 5837 5838 5839 5840 5842 5844 5846 5848 5849 5851 5853 5855 5857 5858 5860 5861 5863 5864 5866 5867 5868 5869 5871 5871 5872 5873 5874 5874 5875 5875 5875 5875 5875 5875 5875 5874 5874 5873 5873
5832 5833 5833 5833 5834 5835 5836 5838 5840 5842 5844 5846 5847 5849 5851 5853 5855 5857 5858 5860 5861 5863 5864 5866 5867 5868 5869 5870 5871 5872 5872 5873 5873 5873 5873 5874 5873 5873 5873 5873 5872 5871 5871
5830 5830 5830 5831 5832 5833 5834 5836 5838 5840 5842 5844 5846 5847 5849 5851 5853 5855 5857 5858 5860 5862 5863 5864 5865 5867 5868 5869 5869 5870 5871 5871 5871 5872 5872 5871 5871 5871 5871 5871 5870 5870 5869
5827 5827 5828 5829 5830 5831 5832 5834 5836 5838 5840 5842 5844 5845 5847 5849 5851 5853 5855 5857 5859 5861 5862 5863 5864 5865 5866 5867 5868 5869 5869 5870 5870 5870 5870 5870 5870 5869 5869 5869 5868 5867 5867
5824 5825 5825 5827 5828 5829 5830 5832 5834 5836 5838 5840 5842 5843 5845 5847 5849 5852 5854 5856 5858 5860 5861 5862 5863 5864 5865 5866 5867 5868 5868 5868 5868 5868 5868 5868 5868 5867 5867 5866 5866 5865 5865
5822 5822 5823 5824 5826 5827 5829 5831 5833 5835 5837 5838 5840 5842 5844 5846 5848 5850 5853 5855 5857 5859 5860 5861 5862 5863 5864 5865 5866 5866 5866 5867 5866 5866 5866 5866 5866 5865 5865 5864 5864 5863 5863
5819 5820 5821 5823 5824 5826 5828 5830 5832 5833 5835 5837 5839 5841 5842 5844 5847 5849 5851 5854 5856 5857 5859 5860 5861 5862 5863 5863 5864 5865 5865 5865 5865 5865 5864 5864 5864 5863 5863 5862 5862 5862 5860
5818 5819 5820 5821 5823 5825 5827 5829 5830 5832 5834 5835 5837 5839 5841 5843 5845 5848 5850 5852 5854 5856 5857 5859 5860 5861 5862 5862 5863 5863 5863 5863 5863 5863 5863 5862 5862 5861 5861 5860 5860 5859 5858
5816 5818 5819 5821 5822 5824 5826 5828 5829 5831 5832 5834 5836 5838 5840 5842 5844 5847 5849 5851 5852 5854 5856 5857 5858 5859 5860 5860 5861 5861 5861 5861 5861 5861 5861 5860 5860 5859 5859 5858 5857 5856 5855
5815 5816 5818 5820 5821 5823 5825 5826 5828 5830 5831 5833 5835 5836 5838 5841 5843 5845 5847 5849 5851 5852 5854 5855 5856 5857 5858 5858 5859 5859 5859 5859 5859 5859 5859 5858 5858 5857 5857 5856 5855 5854 5853
5813 5815 5817 5818 5820 5821 5823 5825 5827 5829 5830 5832 5833 5835 5837 5839 5841 5844 5845 5847 5849 5850 5852 5853 5854 5855 5856 5856 5856 5857 5857 5857 5857 5857 5856 5856 5855 5855 5854 5853 5852 5851 5849
5811 5813 5815 5817 5818 5820 5822 5823 5825 5827 5829 5830 5832 5834 5836 5838 5840 5842 5843 5845 5847 5848 5849 5851 5852 5852 5853 5854 5854 5854 5854 5854 5854 5854 5853 5853 5852 5851 5850 5849 5848 5847 5846
5809 5811 5813 5814 5816 5818 5820 5822 5824 5825 5827 5828 5830 5832 5834 5836 5838 5840 5841 5843 5844 5845 5847 5848 5849 5850 5850 5851 5851 5851 5851 5851 5851 5851 5850 5849 5848 5848 5847 5845 5844 5843 5841
5806 5808 5810 5812 5814 5816 5818 5820 5821 5823 5825 5827 5828 5830 5832 5834 5835 5837 5838 5840 5842 5843 5844 5845 5846 5847 5847 5848 5848 5848 5848 5848 5847 5847 5846 5845 5844 5843 5842 5841 5840 5838 5837
5802 5804 5807 5809 5811 5813 5815 5817 5819 5821 5823 5825 5826 5828 5830 5831 5833 5835 5836 5838 5839 5840 5841 5842 5843 5843 5844 5844 5844 5844 5844 5844 5843 5842 5841 5841 5840 5838 5837 5836 5835 5833 5831
5798 5801 5803 5806 5808 5810 5812 5815 5817 5819 5820 5822 5824 5826 5827 5829 5831 5832 5833 5835 5836 5837 5838 5838 5839 5839 5840 5840 5840 5840 5839 5839 5838 5838 5837 5836 5834 5833 5832 5830 5829 5827 5825
5794 5796 5799 5802 5804 5807 5809 5812 5814 5816 5818 5820 5821 5823 5825 5826 5828 5829 5830 5831 5832 5833 5834 5834 5835 5835 5835 5835 5835 5835 5834 5834 5833 5832 5831 5830 5828 5827 5825 5824 5822 5820 5818
5790 5792 5795 5798 5801 5803 5806 5808 5810 5813 5815 5817 5818 5820 5821 5823 5824 5826 5827 5827 5828 5829 5829 5830 5830 5830 5830 5830 5830 5829 5828 5828 5827 5826 5824 5823 5822 5820 5818 5817 5815 5813 5811
5785 5788 5791 5794 5797 5799 5802 5804 5807 5809 5811 5812 5814 5816 5818 5819 5820 5821 5822 5823 5823 5824 5824 5824 5824 5824 5824 5824 5824 5823 5822 5821 5820 5818 5817 5816 5814 5812 5811 5809 5807 5805 5802
5780 5783 5786 5789 5792 5795 5798 5800 5802 5804 5806 5808 5810 5812 5813 5814 5815 5816 5817 5817 5818 5818 5818 5818 5818 5818 5818 5818 5817 5816 5815 5814 5813 5811 5810 5808 5807 5805 5803 5801 5798 5796 5794
5775 5778 5781 5784 5787 5790 5793 5795 5797 5799 5801 5803 5805 5806 5807 5809 5810 5811 5811 5812 5812 5812 5812 5812 5812 5812 5811 5810 5809 5808 5807 5806 5805 5803 5802 5800 5798 5796 5794 5792 5789 5787 5784
5769 5772 5775 5778 5781 5784 5787 5790 5791 5793 5795 5797 5799 5800 5802 5803 5804 5804 5805 5805 5806 5805 5805 5805 5805 5804 5804 5803 5801 5800 5799 5798 5796 5795 5793 5791 5789 5786 5784 5782 5779 5777 5774
5764 5767 5770 5773 5776 5778 5781 5783 5786 5787 5789 5791 5792 5794 5795 5796 5797 5798 5798 5798 5799 5799 5798 5798 5797 5796 5796 5795 5793 5792 5791 5789 5787 5785 5784 5781 5779 5776 5774 5771 5769 5766 5763
5759 5761 5764 5767 5769 5772 5774 5777 5779 5781 5783 5784 5786 5787 5788 5789 5790 5790 5791 5791 5791 5791 5790 5790 5789 5788 5787 5785 5784 5783 5781 5779 5777 5775 5773 5770 5768 5765 5763 5760 5757 5754 5751